Preview of NWS' New Version of Forecast
This preview is not operational and should not be used for support decisions.

Regional Weather Roundup (RWR)

Issued by National Weather Service (NWS)

                            
000
ASUS44 KJAN 182210
RWRMS 

MISSISSIPPI HOURLY WEATHER ROUNDUP
NATIONAL WEATHER SERVICE JACKSON MS
500 PM CDT THU APR 18 2019

NOTE: "FAIR: INDICATES FEW OR NO CLOUDS BELOW 12,000 FEET WITH NO
SIGNIFICANT WEATHER AND/OR OBSTRUCTIONS TO VISIBILITY.

MSZ001>002-007>008-010>013-018>021-025>028-034>036-182300-
NORTHWEST MISSISSIPPI
  
CITY           SKY/WX    TMP DP  RH WIND       PRES   REMARKS
BATESVILLE     RAIN     N/A N/A N/A SW6       29.75S                  
CLARKSDALE     CLOUDY    63  63 100 E16       29.65F FOG              
CLEVELAND      FAIR      60  60 100 E20G25    29.54F                  
GREENWOOD      HVY RAIN  61  59  93 NE18      29.66F FOG              
GREENVILLE     FAIR      61  58  90 E16G26    29.52F                  
OLIVE BRANCH   RAIN      61  61 100 S6        29.72S FOG              
OXFORD         RAIN      59  59 100 W5        29.76S                  
TUNICA         RAIN      61  59  94 SE17      29.71F                  
WINONA         TSTM      60  60 100 W7        29.76R                  
$$

MSZ003>006-009-014>017-022>024-029>033-037>039-182300-
NORTHEAST MISSISSIPPI
  
CITY           SKY/WX    TMP DP  RH WIND       PRES   REMARKS
ABERDEEN       LGT RAIN  68  68 100 W5        29.68R                  
COLUMBUS AFB   TSTM      70  66  88 N6        29.64F FOG              
CORINTH        RAIN      61  59  94 W10       29.71R VSB 1            
GOLDN TRIANGLE RAIN      68  66  93 NE9       29.63F FOG              
STARKVILLE     CLOUDY    64  63  94 N9G17     29.61F                  
TUPELO         HVY RAIN  63  60  90 NW7       29.71R VSB 1            
$$

MSZ040-058-182300-
CENTRAL MISSISSIPPI
  
CITY           SKY/WX    TMP DP  RH WIND       PRES   REMARKS
JACKSON INTL   TSTM      61  58  90 N12       29.66S FOG              
JACKSON HAWKNS HVY RAIN  61  60  97 N7        29.64F FOG              
MADISON        CLOUDY    59  59 100 NE7       29.63F THUNDER          
MERIDIAN KEY   TSTM      65  64  97 S20       29.71R VSB 1            
MERIDIAN NAS   TSTM      65  63  93 SW15G24   29.70R VSB 3/4          
RAYMOND        TSTM      61  61 100 VRB3      29.63F                  
VICKSBURG VKS  MOCLDY    61  61 100 VRB8G14   29.60R                  
$$

MSZ059>079-182300-
SOUTH MISSISSIPPI
  
CITY           SKY/WX    TMP DP  RH WIND       PRES   REMARKS
HATTIESBURG    TSTM      63  62  97 NW20G33   29.73R VSB 1/2          
LAUREL         HVY RAIN  64  63  97 SE9       29.72R VSB 1            
MCCOMB         TSTM      62  59  90 VRB7G20   29.65F VSB 3/4          
NATCHEZ        CLOUDY    61  59  93 VRB6      29.64R                  
PINE BELT      TSTM      63  63 100 N8        29.72R FOG              
$$

MSZ080>082-182300-
COASTAL MISSISSIPPI
  
CITY           SKY/WX    TMP DP  RH WIND       PRES   REMARKS
BAY ST LOUIS   TSTM      72  70  94 SE15      29.67F                  
BILOXI         CLOUDY    73  71  92 S13G24    29.67F                  
PASCAGOULA     CLOUDY    75  69  81 S17G26    29.70F                  
GULFPORT       CLOUDY    74  71  91 S18G29    29.67F                  
$$

LAZ007>009-015>016-023>026-182300-
NORTHEAST LOUISIANA
  
CITY           SKY/WX    TMP DP  RH WIND       PRES   REMARKS
BASTROP        CLOUDY    62  61  98 CALM      29.61S                  
TALLULAH/VBURG PTSUNNY   62  59  90 NE12      29.56R                  
VIDALIA          N/A     62  60  95 W3        29.64R                  
$$